Vertical_Velocity
-0 -8 -3 -5 14 -1 -3 -2 -3 -6 -5 -3 -2 -3 -3 -4 -4 1 14 5 6 2
-3 1 4 10 -15 -8 1 -2 3 -2 -4 -3 -5 -5 -4 1 9 3 2 -0 4 -1
-2 -0 -3 -14 3 -0 -2 -3 -2 -3 -3 -4 -4 5 0 1 -1 0 -3 -0 -4 -3
1 -2 -10 -4 2 -1 -1 -2 -3 -3 -5 -2 4 -5 -2 -4 -2 -3 -2 -0 -0 -2
-1 -4 3 -4 -0 1 -1 -1 -2 -3 -2 -3 2 -8 -5 -6 -4 -5 -4 -2 1 -1
1 17 -3 5 3 -0 -1 -2 -4 -1 1 7 0 -5 -2 -1 7 3 -1 3 4 1
-2 11 7 -2 0 -3 -1 -3 1 -1 -4 1 -6 -11 7 9 3 1 1 -3 -1 -5
17 2 -3 0 -3 -0 1 -2 -6 -4 8 3 -2 -1 1 1 -0 -3 -4 -2 2 1
-6 -5 1 -2 0 -3 -3 -1 5 3 7 1 1 -6 3 1 1 -2 -1 -2 -2 -5
-7 -2 -4 1 2 0 1 -4 -5 -10 2 -4 -0 -9 -2 2 1 -5 -2 0 2 -3
-2 2 0 1 -2 1 3 1 -6 2 5 -5 -2 -1 -2 4 -3 -0 -1 3 -1 -2
2 6 -4 -5 -2 -4 -1 -1 -1 1 5 -3 -3 3 0 1 -2 1 -0 -3 -4 4
-4 5 -3 -1 1 -3 -4 -1 6 1 -1 -1 -2 1 2 -2 -0 -1 -1 -2 -2 -3
-6 -2 3 1 -2 -2 -4 0 1 -1 -4 -4 1 -3 -3 -0 -1 -1 -2 -2 -1 5
Height
1539 1541 1544 1546 1547 1546 1546 1545 1543 1542 1540 1539 1536 1534 1532 1529 1527 1526 1523 1519 1517 1515
1537 1539 1540 1539 1539 1544 1542 1541 1539 1537 1535 1533 1531 1529 1527 1525 1523 1520 1518 1515 1512 1511
1533 1534 1535 1536 1538 1537 1537 1535 1533 1531 1530 1528 1527 1525 1521 1519 1516 1514 1512 1510 1508 1508
1529 1529 1531 1532 1534 1534 1532 1530 1528 1526 1525 1523 1521 1518 1515 1513 1512 1510 1509 1507 1506 1505
1525 1525 1527 1529 1531 1530 1528 1526 1524 1522 1520 1518 1515 1512 1510 1508 1507 1505 1504 1504 1503 1502
1523 1523 1523 1526 1526 1525 1524 1521 1519 1518 1517 1516 1513 1511 1508 1506 1505 1503 1501 1501 1500 1497
1521 1523 1520 1521 1521 1520 1519 1517 1516 1515 1514 1512 1509 1508 1507 1505 1502 1501 1500 1494 1495 1494
1517 1518 1517 1517 1517 1516 1515 1514 1513 1511 1510 1506 1504 1504 1501 1500 1498 1498 1496 1491 1490 1490
1515 1515 1514 1514 1513 1512 1511 1510 1509 1507 1506 1503 1502 1501 1499 1496 1494 1493 1490 1488 1486 1485
1511 1509 1511 1512 1510 1508 1507 1505 1504 1502 1499 1496 1495 1494 1493 1492 1490 1490 1486 1484 1482 1481
1510 1507 1505 1506 1507 1505 1503 1500 1498 1497 1494 1491 1491 1489 1489 1488 1485 1485 1481 1480 1478 1477
1508 1505 1501 1501 1501 1500 1498 1497 1495 1492 1488 1486 1486 1485 1484 1482 1481 1479 1476 1474 1474 1473
1505 1502 1501 1500 1497 1494 1492 1491 1490 1486 1484 1482 1480 1479 1478 1478 1477 1474 1472 1470 1469 1467
1502 1499 1495 1492 1491 1490 1488 1486 1484 1481 1478 1478 1475 1473 1472 1473 1472 1469 1467 1465 1465 1464